Location: ??
(35.1714°N, 128.2806°E)
Time: 15:00:57
(UTC+00:00)

Cosmos 1697 Rocket - Pass Details

Date: 29 October 2020
Orbit: 831 x 845 km, 71.0° (Epoch: 01 December)

Event Time Altitude Azimuth Distance (km) Brightness Sun altitude
Exits shadow 19:19:20 30° 8° (N) 1,460 4.0 -30.5°
Maximum altitude 19:21:46 49° 65° (ENE) 1,073 3.5 -30.0°
Drops below altitude 10° 19:27:14 10° 140° (SE) 2,457 5.5 -28.9°
Sets 19:29:44 0° 146° (SE) 3,388 6.2 -28.4°
